This is the latest recevied weather packets stored in our database for station/object N1HQ. If no packets are shown the sender has not sent any weather packets the latest 10 day(s).
| Time | Temp. | Humidity | Pressure | Rain* | Wind** | Luminosity | Snow |
|---|---|---|---|---|---|---|---|
| 1777481082 | 28.33° C | 79% | 1014.2 hPa | 0 mm | - | - | - |
| 1777480823 | 27.78° C | 81% | 1014.3 hPa | 0 mm | - | - | - |
| 1777480548 | 27.78° C | 79% | 1014.2 hPa | 0 mm | - | - | - |
| 1777480298 | 27.78° C | 82% | 1014.2 hPa | 0 mm | - | - | - |
| 1777480030 | 27.22° C | 82% | 1014.2 hPa | 0 mm | - | - | - |
| 1777479748 | 27.22° C | 82% | 1014 hPa | 0 mm | - | - | - |
| 1777479493 | 26.67° C | 82% | 1013.9 hPa | 0 mm | - | - | - |
| 1777478988 | 27.78° C | 79% | 1013.5 hPa | 0 mm | - | - | - |
| 1777478713 | 27.22° C | 80% | 1013.7 hPa | 0 mm | - | - | - |
| 1777478413 | 27.22° C | 81% | 1014 hPa | 0 mm | - | - | - |
| 1777478143 | 27.22° C | 80% | 1014.2 hPa | 0 mm | - | - | - |
| 1777477892 | 26.67° C | 79% | 1014.3 hPa | 0 mm | - | - | - |
| 1777477614 | 26.67° C | 79% | 1014.5 hPa | 0 mm | - | - | - |
| 1777477322 | 26.67° C | 80% | 1015.1 hPa | 0 mm | - | - | - |
| 1777477043 | 26.67° C | 81% | 1015.6 hPa | 0 mm | - | - | - |
| 1777476773 | 26.67° C | 82% | 1015.7 hPa | 0 mm | - | - | - |
| 1777476508 | 26.67° C | 83% | 1015.7 hPa | 0 mm | - | - | - |
| 1777476243 | 26.67° C | 81% | 1015.8 hPa | 0 mm | - | - | - |
| 1777476002 | 26.67° C | 84% | 1015.6 hPa | 0 mm | - | - | - |
| 1777475725 | 26.67° C | 82% | 1015.6 hPa | 0 mm | - | - | - |
| 1777475485 | 26.67° C | 81% | 1015.4 hPa | 0 mm | - | - | - |
| 1777475228 | 26.67° C | 83% | 1015.4 hPa | 0 mm | - | - | - |
| 1777474953 | 26.11° C | 83% | 1015.4 hPa | 0 mm | - | - | - |
| 1777474706 | 26.11° C | 83% | 1015.4 hPa | 0 mm | - | - | - |
| 1777474456 | 25.56° C | 84% | 1015.4 hPa | 0 mm | - | - | - |
* Rain latest hour (hover to see other rain measurements)
** Current wind speed in m/s (hover to see current wind gust speed)